Time,TemperatureF,DewpointF,PressureIn,WindDirection,WindDirectionDegrees,WindSpeedMPH,WindSpeedGustMPH,Humidity,HourlyPrecipIn,Conditions,Clouds,dailyrainin,SoftwareType,DateUTC
2013-05-31 00:00:00,78.1,66.7,29.99,North,0,0.0,7.0,68,0.00,,,-99.99,WeatherLink 5.7,2013-05-31 04:00:00,
2013-05-31 00:15:00,77.8,66.8,29.99,North,0,0.0,7.0,69,0.00,,,-99.99,WeatherLink 5.7,2013-05-31 04:15:00,
2013-05-31 00:30:00,77.6,66.6,29.99,North,0,0.0,7.0,69,0.00,,,-99.99,WeatherLink 5.7,2013-05-31 04:30:00,
2013-05-31 00:45:00,77.4,66.8,29.99,North,0,0.0,10.0,70,0.00,,,-99.99,WeatherLink 5.7,2013-05-31 04:45:00,
2013-05-31 01:00:00,77.1,66.6,29.98,North,0,0.0,9.0,70,0.00,,,-99.99,WeatherLink 5.7,2013-05-31 05:00:00,
2013-05-31 01:15:00,76.9,66.8,29.97,North,0,0.0,11.0,71,0.00,,,-99.99,WeatherLink 5.7,2013-05-31 05:15:00,
2013-05-31 01:30:00,76.7,66.6,29.97,North,0,0.0,7.0,71,0.00,,,-99.99,WeatherLink 5.7,2013-05-31 05:30:00,
2013-05-31 01:45:00,76.5,66.8,29.97,North,0,0.0,4.0,72,0.00,,,-99.99,WeatherLink 5.7,2013-05-31 05:45:00,
2013-05-31 02:00:00,76.2,66.5,29.95,North,0,0.0,7.0,72,0.00,,,-99.99,WeatherLink 5.7,2013-05-31 06:00:00,
2013-05-31 02:15:00,76.0,66.7,29.95,North,0,0.0,3.0,73,0.00,,,-99.99,WeatherLink 5.7,2013-05-31 06:15:00,
2013-05-31 02:30:00,75.7,66.4,29.94,North,0,0.0,4.0,73,0.00,,,-99.99,WeatherLink 5.7,2013-05-31 06:30:00,
2013-05-31 02:45:00,75.5,66.6,29.94,North,0,0.0,7.0,74,0.00,,,-99.99,WeatherLink 5.7,2013-05-31 06:45:00,
2013-05-31 03:00:00,75.3,66.4,29.94,North,0,0.0,6.0,74,0.00,,,-99.99,WeatherLink 5.7,2013-05-31 07:00:00,
2013-05-31 03:15:00,75.3,66.8,29.94,North,0,0.0,7.0,75,0.00,,,-99.99,WeatherLink 5.7,2013-05-31 07:15:00,
2013-05-31 03:30:00,75.1,66.6,29.94,North,0,0.0,4.0,75,0.00,,,-99.99,WeatherLink 5.7,2013-05-31 07:30:00,
2013-05-31 03:45:00,74.9,66.4,29.94,North,0,0.0,4.0,75,0.00,,,-99.99,WeatherLink 5.7,2013-05-31 07:45:00,
2013-05-31 04:00:00,74.7,66.6,29.93,North,0,0.0,6.0,76,0.00,,,-99.99,WeatherLink 5.7,2013-05-31 08:00:00,
2013-05-31 04:15:00,74.6,66.5,29.94,North,0,0.0,9.0,76,0.00,,,-99.99,WeatherLink 5.7,2013-05-31 08:15:00,
2013-05-31 04:30:00,74.3,66.2,29.94,North,-999,0.0,0.0,76,0.00,,,-99.99,WeatherLink 5.7,2013-05-31 08:30:00,
2013-05-31 04:45:00,74.0,66.3,29.93,North,-999,0.0,0.0,77,0.00,,,-99.99,WeatherLink 5.7,2013-05-31 08:45:00,
2013-05-31 05:00:00,73.8,66.5,29.94,North,-999,0.0,0.0,78,0.00,,,-99.99,WeatherLink 5.7,2013-05-31 09:00:00,
2013-05-31 05:15:00,73.6,66.3,29.94,North,-999,0.0,0.0,78,0.00,,,-99.99,WeatherLink 5.7,2013-05-31 09:15:00,
2013-05-31 05:30:00,73.4,66.5,29.94,North,-999,0.0,0.0,79,0.00,,,-99.99,WeatherLink 5.7,2013-05-31 09:30:00,
2013-05-31 05:45:00,73.5,66.6,29.95,North,-999,0.0,0.0,79,0.00,,,-99.99,WeatherLink 5.7,2013-05-31 09:45:00,
2013-05-31 06:00:00,73.3,66.4,29.94,North,-999,0.0,0.0,79,0.00,,,-99.99,WeatherLink 5.7,2013-05-31 10:00:00,
2013-05-31 06:15:00,73.1,66.6,29.94,North,0,0.0,5.0,80,0.00,,,-99.99,WeatherLink 5.7,2013-05-31 10:15:00,
2013-05-31 06:30:00,72.9,66.4,29.95,North,0,0.0,4.0,80,0.00,,,-99.99,WeatherLink 5.7,2013-05-31 10:30:00,
2013-05-31 06:45:00,72.8,66.6,29.95,North,0,0.0,5.0,81,0.00,,,-99.99,WeatherLink 5.7,2013-05-31 10:45:00,
2013-05-31 07:00:00,72.9,66.7,29.95,North,0,0.0,3.0,81,0.00,,,-99.99,WeatherLink 5.7,2013-05-31 11:00:00,
2013-05-31 07:15:00,73.2,67.0,29.95,North,0,0.0,7.0,81,0.00,,,-99.99,WeatherLink 5.7,2013-05-31 11:15:00,
2013-05-31 07:30:00,73.6,67.0,29.96,North,0,0.0,3.0,80,0.00,,,-99.99,WeatherLink 5.7,2013-05-31 11:30:00,
2013-05-31 07:45:00,74.1,67.2,29.96,North,0,1.0,5.0,79,0.00,,,-99.99,WeatherLink 5.7,2013-05-31 11:45:00,
2013-05-31 08:00:00,74.9,67.9,29.96,North,0,1.0,7.0,79,0.00,,,-99.99,WeatherLink 5.7,2013-05-31 12:00:00,
2013-05-31 08:15:00,75.7,68.0,29.97,North,0,1.0,9.0,77,0.00,,,-99.99,WeatherLink 5.7,2013-05-31 12:15:00,
2013-05-31 08:30:00,76.4,68.3,29.97,North,0,2.0,12.0,76,0.00,,,-99.99,WeatherLink 5.7,2013-05-31 12:30:00,
2013-05-31 08:45:00,76.8,68.3,29.97,North,0,1.0,11.0,75,0.00,,,-99.99,WeatherLink 5.7,2013-05-31 12:45:00,
2013-05-31 09:00:00,77.5,68.6,29.98,North,0,1.0,16.0,74,0.00,,,-99.99,WeatherLink 5.7,2013-05-31 13:00:00,
2013-05-31 09:15:00,78.2,68.8,29.97,North,0,3.0,15.0,73,0.00,,,-99.99,WeatherLink 5.7,2013-05-31 13:15:00,
2013-05-31 09:30:00,79.1,69.7,29.97,North,0,1.0,15.0,73,0.00,,,-99.99,WeatherLink 5.7,2013-05-31 13:30:00,
2013-05-31 09:45:00,80.0,69.7,29.98,North,0,1.0,13.0,71,0.00,,,-99.99,WeatherLink 5.7,2013-05-31 13:45:00,
2013-05-31 10:00:00,81.0,69.9,29.99,North,0,1.0,11.0,69,0.00,,,-99.99,WeatherLink 5.7,2013-05-31 14:00:00,
2013-05-31 10:15:00,82.0,70.0,29.99,North,0,1.0,12.0,67,0.00,,,-99.99,WeatherLink 5.7,2013-05-31 14:15:00,
2013-05-31 10:30:00,83.0,70.5,29.99,North,0,2.0,13.0,66,0.00,,,-99.99,WeatherLink 5.7,2013-05-31 14:30:00,
2013-05-31 10:45:00,83.9,70.0,29.99,North,0,1.0,12.0,63,0.00,,,-99.99,WeatherLink 5.7,2013-05-31 14:45:00,
2013-05-31 11:00:00,84.7,70.2,29.99,North,0,1.0,20.0,62,0.00,,,-99.99,WeatherLink 5.7,2013-05-31 15:00:00,
2013-05-31 11:15:00,85.9,70.9,29.99,North,0,0.0,10.0,61,0.00,,,-99.99,WeatherLink 5.7,2013-05-31 15:15:00,
2013-05-31 11:30:00,86.5,70.5,29.99,North,0,0.0,10.0,59,0.00,,,-99.99,WeatherLink 5.7,2013-05-31 15:30:00,
2013-05-31 11:45:00,86.0,70.0,29.99,North,0,0.0,7.0,59,0.00,,,-99.99,WeatherLink 5.7,2013-05-31 15:45:00,
2013-05-31 12:00:00,85.4,69.4,29.98,North,0,1.0,11.0,59,0.00,,,-99.99,WeatherLink 5.7,2013-05-31 16:00:00,
2013-05-31 12:15:00,85.6,69.6,29.98,North,0,0.0,9.0,59,0.00,,,-99.99,WeatherLink 5.7,2013-05-31 16:15:00,
2013-05-31 12:30:00,86.4,69.9,29.98,North,0,0.0,7.0,58,0.00,,,-99.99,WeatherLink 5.7,2013-05-31 16:30:00,
2013-05-31 12:45:00,87.6,70.0,29.97,North,0,0.0,7.0,56,0.00,,,-99.99,WeatherLink 5.7,2013-05-31 16:45:00,
2013-05-31 13:00:00,89.5,69.5,29.97,North,0,0.0,9.0,52,0.00,,,-99.99,WeatherLink 5.7,2013-05-31 17:00:00,
2013-05-31 13:15:00,90.4,70.4,29.97,North,0,1.0,12.0,52,0.00,,,-99.99,WeatherLink 5.7,2013-05-31 17:15:00,
2013-05-31 13:30:00,90.9,70.3,29.97,North,0,1.0,13.0,51,0.00,,,-99.99,WeatherLink 5.7,2013-05-31 17:30:00,
2013-05-31 13:45:00,90.4,69.8,29.97,North,0,0.0,1.0,51,0.00,,,-99.99,WeatherLink 5.7,2013-05-31 17:45:00,
2013-05-31 14:00:00,89.7,69.2,29.96,North,0,0.0,7.0,51,0.00,,,-99.99,WeatherLink 5.7,2013-05-31 18:00:00,
2013-05-31 14:15:00,90.1,69.5,29.95,North,0,0.0,5.0,51,0.00,,,-99.99,WeatherLink 5.7,2013-05-31 18:15:00,
2013-05-31 14:30:00,91.1,70.5,29.94,North,0,0.0,4.0,51,0.00,,,-99.99,WeatherLink 5.7,2013-05-31 18:30:00,
2013-05-31 14:45:00,91.4,69.6,29.94,North,0,0.0,1.0,49,0.00,,,-99.99,WeatherLink 5.7,2013-05-31 18:45:00,
2013-05-31 15:00:00,91.3,69.5,29.93,North,0,0.0,7.0,49,0.00,,,-99.99,WeatherLink 5.7,2013-05-31 19:00:00,
2013-05-31 15:15:00,91.4,69.6,29.92,North,0,0.0,2.0,49,0.00,,,-99.99,WeatherLink 5.7,2013-05-31 19:15:00,
2013-05-31 15:30:00,91.5,68.4,29.92,North,0,1.0,10.0,47,0.00,,,-99.99,WeatherLink 5.7,2013-05-31 19:30:00,
2013-05-31 15:45:00,91.8,69.9,29.92,North,0,0.0,7.0,49,0.00,,,-99.99,WeatherLink 5.7,2013-05-31 19:45:00,
2013-05-31 16:00:00,91.6,70.3,29.92,North,0,1.0,10.0,50,0.00,,,-99.99,WeatherLink 5.7,2013-05-31 20:00:00,
2013-05-31 16:15:00,91.6,70.9,29.92,North,0,2.0,14.0,51,0.00,,,-99.99,WeatherLink 5.7,2013-05-31 20:15:00,
2013-05-31 16:30:00,91.8,71.1,29.92,North,0,2.0,10.0,51,0.00,,,-99.99,WeatherLink 5.7,2013-05-31 20:30:00,
2013-05-31 16:45:00,91.6,70.9,29.92,North,0,1.0,9.0,51,0.00,,,-99.99,WeatherLink 5.7,2013-05-31 20:45:00,
2013-05-31 17:00:00,90.3,70.8,29.92,North,0,1.0,12.0,53,0.00,,,-99.99,WeatherLink 5.7,2013-05-31 21:00:00,
2013-05-31 17:15:00,89.4,70.6,29.91,North,0,2.0,13.0,54,0.00,,,-99.99,WeatherLink 5.7,2013-05-31 21:15:00,
2013-05-31 17:30:00,89.1,70.8,29.91,North,0,2.0,17.0,55,0.00,,,-99.99,WeatherLink 5.7,2013-05-31 21:30:00,
2013-05-31 17:45:00,89.3,71.5,29.91,North,0,3.0,15.0,56,0.00,,,-99.99,WeatherLink 5.7,2013-05-31 21:45:00,
2013-05-31 18:00:00,89.5,71.7,29.91,North,0,1.0,13.0,56,0.00,,,-99.99,WeatherLink 5.7,2013-05-31 22:00:00,
2013-05-31 18:15:00,88.0,71.9,29.91,North,0,2.0,12.0,59,0.00,,,-99.99,WeatherLink 5.7,2013-05-31 22:15:00,
2013-05-31 18:30:00,86.9,71.3,29.92,North,0,2.0,13.0,60,0.00,,,-99.99,WeatherLink 5.7,2013-05-31 22:30:00,
2013-05-31 18:45:00,86.1,70.1,29.92,North,0,2.0,15.0,59,0.00,,,-99.99,WeatherLink 5.7,2013-05-31 22:45:00,
2013-05-31 19:00:00,84.7,69.8,29.92,North,0,0.0,7.0,61,0.00,,,-99.99,WeatherLink 5.7,2013-05-31 23:00:00,
2013-05-31 19:15:00,84.0,69.6,29.93,North,0,0.0,7.0,62,0.00,,,-99.99,WeatherLink 5.7,2013-05-31 23:15:00,
2013-05-31 19:30:00,83.6,69.7,29.92,North,0,0.0,9.0,63,0.00,,,-99.99,WeatherLink 5.7,2013-05-31 23:30:00,
2013-05-31 19:45:00,83.3,69.4,29.93,North,0,0.0,4.0,63,0.00,,,-99.99,WeatherLink 5.7,2013-05-31 23:45:00,
2013-05-31 20:00:00,82.9,68.5,29.94,North,0,0.0,5.0,62,0.00,,,-99.99,WeatherLink 5.7,2013-06-01 00:00:00,
2013-05-31 20:15:00,82.6,68.3,29.94,North,0,1.0,13.0,62,0.00,,,-99.99,WeatherLink 5.7,2013-06-01 00:15:00,
2013-05-31 20:30:00,82.4,69.4,29.95,North,0,1.0,11.0,65,0.00,,,-99.99,WeatherLink 5.7,2013-06-01 00:30:00,
2013-05-31 20:45:00,82.5,70.9,29.95,North,0,0.0,5.0,68,0.00,,,-99.99,WeatherLink 5.7,2013-06-01 00:45:00,
2013-05-31 21:00:00,82.1,70.5,29.95,North,0,0.0,3.0,68,0.00,,,-99.99,WeatherLink 5.7,2013-06-01 01:00:00,
2013-05-31 21:15:00,81.4,69.8,29.95,North,0,0.0,6.0,68,0.00,,,-99.99,WeatherLink 5.7,2013-06-01 01:15:00,
2013-05-31 21:30:00,80.9,68.9,29.96,North,0,0.0,9.0,67,0.00,,,-99.99,WeatherLink 5.7,2013-06-01 01:30:00,
2013-05-31 21:45:00,80.7,68.3,29.97,North,0,0.0,11.0,66,0.00,,,-99.99,WeatherLink 5.7,2013-06-01 01:45:00,
2013-05-31 22:00:00,80.7,68.3,29.97,North,0,1.0,10.0,66,0.00,,,-99.99,WeatherLink 5.7,2013-06-01 02:00:00,
2013-05-31 22:15:00,80.5,68.5,29.96,North,0,1.0,7.0,67,0.00,,,-99.99,WeatherLink 5.7,2013-06-01 02:15:00,
2013-05-31 22:30:00,80.2,68.2,29.97,North,0,1.0,12.0,67,0.00,,,-99.99,WeatherLink 5.7,2013-06-01 02:30:00,
2013-05-31 22:45:00,79.8,68.3,29.97,North,0,0.0,6.0,68,0.00,,,-99.99,WeatherLink 5.7,2013-06-01 02:45:00,
2013-05-31 23:00:00,79.4,67.9,29.97,North,0,1.0,10.0,68,0.00,,,-99.99,WeatherLink 5.7,2013-06-01 03:00:00,
2013-05-31 23:15:00,79.1,68.1,29.97,North,0,1.0,11.0,69,0.00,,,-99.99,WeatherLink 5.7,2013-06-01 03:15:00,
2013-05-31 23:30:00,78.7,68.1,29.97,North,0,0.0,7.0,70,0.00,,,-99.99,WeatherLink 5.7,2013-06-01 03:30:00,
2013-05-31 23:45:00,78.6,68.4,29.97,North,0,1.0,11.0,71,0.00,,,-99.99,WeatherLink 5.7,2013-06-01 03:45:00,